CAPE
0 0 0 0 0 0 0 0 0 0 0 0 0 0 0 0 0 0 0 0 0 0 0 0 0 0 0 0 0 0 0 0 0 0 0 0 0 0 0 0 0 0 0 0 0
0 0 0 0 0 0 0 0 0 0 0 0 0 0 0 0 0 0 0 0 0 0 0 0 0 0 0 0 0 0 0 0 0 0 0 0 0 0 0 0 0 0 0 0 0
0 0 0 0 0 0 0 0 0 0 0 0 0 0 0 0 0 0 0 0 0 0 0 0 0 0 0 0 0 0 0 0 0 0 0 0 0 0 0 0 0 0 0 0 0
0 0 0 0 0 0 0 0 0 0 0 0 0 0 0 0 0 0 0 0 0 0 0 0 0 0 0 0 0 0 0 0 0 0 0 0 0 0 0 0 0 0 0 0 0
0 0 0 0 0 0 0 0 0 0 0 0 0 0 0 0 0 0 0 0 0 0 0 0 0 0 0 0 0 0 0 0 0 0 0 0 0 0 0 0 0 0 0 0 0
0 0 0 0 0 0 0 0 0 0 0 0 0 0 0 0 0 0 0 0 0 0 0 0 0 0 0 0 0 0 0 0 0 0 0 0 0 0 0 0 0 0 0 0 0
0 0 0 0 0 0 0 0 0 0 0 0 0 0 0 0 0 0 0 0 0 0 0 0 0 0 0 0 0 0 0 0 0 0 0 0 0 0 0 0 0 0 0 0 0
0 0 0 0 0 0 0 0 0 0 0 0 0 0 0 0 0 0 0 0 0 0 0 0 0 0 0 0 0 0 0 0 0 0 0 0 0 0 0 0 0 0 0 0 0
0 0 0 0 0 0 0 0 0 0 0 0 0 0 0 0 0 0 0 0 0 0 0 0 0 0 0 0 0 0 0 0 0 0 0 0 0 0 0 0 0 0 0 0 0
1 0 0 0 0 0 0 0 0 0 0 0 0 0 0 0 0 0 0 0 0 0 0 0 0 0 0 0 0 0 0 0 0 0 0 0 0 0 0 0 0 0 0 0 0
17 3 1 0 0 0 0 0 0 0 0 0 0 0 0 0 0 0 0 0 0 0 0 0 0 0 0 0 0 0 0 0 0 0 0 0 0 0 0 0 0 0 0 0 0
1 0 5 1 0 0 0 0 0 0 0 0 0 0 0 0 0 0 0 0 0 0 0 0 0 0 0 0 0 0 0 0 0 0 0 0 0 0 0 0 0 0 0 0 0
2 0 0 7 2 1 11 23 0 0 0 0 0 0 0 0 0 0 0 0 0 0 0 0 0 0 0 0 0 0 0 0 0 0 0 0 0 0 0 0 0 0 0 0 0
0 1 0 30 6 3 6 8 0 0 0 0 0 0 0 0 0 0 0 0 0 0 0 0 0 0 0 0 0 0 0 0 0 0 0 0 0 0 0 0 0 0 0 0 0
0 0 0 1 22 28 0 0 0 0 0 0 0 0 0 0 0 0 0 0 0 0 0 0 0 0 0 0 0 0 0 0 0 0 0 0 0 0 0 0 0 0 0 0 0
0 0 0 0 4 0 0 0 0 5 0 0 0 0 0 0 0 0 0 0 0 0 0 0 0 0 0 0 0 0 0 0 0 0 0 0 0 0 0 0 0 0 0 0 0
0 0 0 0 7 0 0 3 1 0 0 0 0 0 0 0 0 0 0 0 0 0 0 0 0 0 0 0 0 0 0 0 0 0 0 0 0 0 0 0 0 0 0 0 0
0 0 0 0 0 0 3 5 0 0 0 0 0 0 0 0 0 0 0 0 0 0 0 0 0 0 0 0 0 0 0 0 0 0 0 0 0 0 0 0 0 0 0 0 0
0 0 0 0 0 0 6 0 0 3 1 0 0 0 0 0 0 0 0 0 0 0 0 0 0 0 0 0 0 0 0 0 0 0 0 0 0 0 0 0 0 0 0 0 0
5 0 0 0 0 0 1 0 0 0 1 0 0 0 2 0 0 0 0 0 0 0 0 0 0 0 0 0 0 0 0 0 0 0 0 0 0 0 0 0 0 0 0 0 0
11 0 0 0 9 0 0 0 0 0 0 4 4 6 7 2 0 0 0 0 0 0 0 0 0 0 0 0 0 0 0 0 0 0 0 0 0 0 0 0 0 0 0 0 0
21 0 0 10 0 2 0 0 0 0 6 18 20 3 0 0 1 3 0 0 0 0 0 0 0 0 0 0 0 0 0 0 0 0 0 0 0 0 0 0 0 0 0 0 0
14 5 0 20 0 0 0 0 0 0 4 21 20 15 1 0 0 0 1 0 0 0 0 0 0 0 0 0 0 0 0 0 0 0 0 0 0 0 0 0 0 0 0 0 0
4 0 1 7 6 0 0 0 0 0 9 12 0 9 21 12 6 0 0 1 1 1 4 0 0 0 0 0 2 0 0 0 0 0 0 0 0 0 0 0 0 0 0 0 0
5 5 1 1 4 7 0 0 0 0 0 0 5 6 19 18 10 6 1 14 22 4 0 1 0 0 0 0 0 0 1 0 0 0 0 0 0 0 0 0 0 0 0 0 0
1 7 6 1 0 5 3 0 0 0 0 0 0 0 0 0 0 0 8 15 21 40 29 0 0 0 0 0 0 0 0 0 0 0 0 0 0 0 0 0 0 0 0 0 0
6 1 12 1 0 0 0 0 0 0 0 0 1 0 0 0 0 0 0 0 1 0 19 5 5 0 0 0 3 0 0 0 0 0 0 0 0 0 0 0 0 0 0 0 0
CIN
0 0 0 0 0 0 0 0 0 0 0 0 0 0 0 0 0 0 0 0 0 0 0 0 0 0 0 0 0 0 0 0 0 0 0 0 0 0 0 0 0 0 0 0 0
0 0 0 0 0 0 0 0 0 0 0 0 0 0 0 0 0 0 0 0 0 0 0 0 0 0 0 0 0 0 0 0 0 0 0 0 0 0 0 0 0 0 0 0 0
0 0 0 0 0 0 0 0 0 0 0 0 0 0 0 0 0 0 0 0 0 0 0 0 0 0 0 0 0 0 0 0 0 0 0 0 0 0 0 0 0 0 0 0 0
0 0 0 0 0 0 0 0 0 0 0 0 0 0 0 0 0 0 0 0 0 0 0 0 0 0 0 0 0 0 0 0 0 0 0 0 0 0 0 0 0 0 0 0 0
0 0 0 0 0 0 0 0 0 0 0 0 0 0 0 0 0 0 0 0 0 0 0 0 0 0 0 0 0 0 0 0 0 0 0 0 0 0 0 0 0 0 0 0 0
0 0 0 0 0 0 0 0 0 0 0 0 0 0 0 0 0 0 0 0 0 0 0 0 0 0 0 0 0 0 0 0 0 0 0 0 0 0 0 0 0 0 0 0 0
0 0 0 0 0 0 0 0 0 0 0 0 0 0 0 0 0 0 0 0 0 0 0 0 0 0 0 0 0 0 0 0 0 0 0 0 0 0 0 0 0 0 0 0 0
0 0 0 0 0 0 0 0 0 0 0 0 0 0 0 0 0 0 0 0 0 0 0 0 0 0 0 0 0 0 0 0 0 0 0 0 0 0 0 0 0 0 0 0 0
0 0 0 0 0 0 0 0 0 0 0 0 0 0 0 0 0 0 0 0 0 0 0 0 0 0 0 0 0 0 0 0 0 0 0 0 0 0 0 0 0 0 0 0 0
-6 0 0 0 0 0 0 0 0 0 0 0 0 0 0 0 0 0 0 0 0 0 0 0 0 0 0 0 0 0 0 0 0 0 0 0 0 0 0 0 0 0 0 0 0
-1 0 -6 0 0 0 0 0 0 0 0 0 0 0 0 0 0 0 0 0 0 0 0 0 0 0 0 0 0 0 0 0 0 0 0 0 0 0 0 0 0 0 0 0 0
-16 0 -13 0 0 0 0 0 0 0 0 0 0 0 0 0 0 0 0 0 0 0 0 0 0 0 0 0 0 0 0 0 0 0 0 0 0 0 0 0 0 0 0 0 0
0 0 0 -14 0 0 -39 -39 0 0 0 0 0 0 0 0 0 0 0 0 0 0 0 0 0 0 0 0 0 0 0 0 0 0 0 0 0 0 0 0 0 0 0 0 0
0 0 0 -3 -4 -1 -37 -75 0 0 0 0 0 0 0 0 0 0 0 0 0 0 0 0 0 0 0 0 0 0 0 0 0 0 0 0 0 0 0 0 0 0 0 0 0
0 0 0 0 -1 0 0 0 0 -2 0 0 0 0 0 0 0 0 0 0 0 0 0 0 0 0 0 0 0 0 0 0 0 0 0 0 0 0 0 0 0 0 0 0 0
0 0 0 0 -20 0 0 0 0 -3 0 0 0 0 0 0 0 0 0 0 0 0 0 0 0 0 0 0 0 0 0 0 0 0 0 0 0 0 0 0 0 0 0 0 0
0 0 0 0 -10 0 0 -7 0 0 0 0 0 0 0 0 0 0 0 0 0 0 0 0 0 0 0 0 0 0 0 0 0 0 0 0 0 0 0 0 0 0 0 0 0
0 0 0 0 0 0 -10 -1 0 0 0 0 0 0 0 0 0 0 0 0 0 0 0 0 0 0 0 0 0 0 0 0 0 0 0 0 0 0 0 0 0 0 0 0 0
0 0 0 0 0 0 -5 0 0 0 -1 0 0 0 0 0 0 0 0 0 0 0 0 0 0 0 0 0 0 0 0 0 0 0 0 0 0 0 0 0 0 0 0 0 0
-1 0 0 0 0 0 0 0 0 0 -1 0 0 -1 -2 0 0 0 0 0 0 0 0 0 0 0 0 0 0 0 0 0 0 0 0 0 0 0 0 0 0 0 0 0 0
-1 0 0 0 -4 -1 0 0 0 0 0 0 0 -4 0 -1 0 0 0 0 0 0 0 0 0 0 0 0 0 0 0 0 0 0 0 0 0 0 0 0 0 0 0 0 0
0 0 0 0 0 0 0 0 0 0 -7 0 -1 0 -1 0 0 0 0 0 0 0 0 0 0 0 0 0 0 0 0 0 0 0 0 0 0 0 0 0 0 0 0 0 0
0 -1 0 0 0 0 0 0 0 -1 -1 -17 -3 -2 -2 0 0 0 0 0 0 0 0 0 0 0 0 0 0 0 0 0 0 0 0 0 0 0 0 0 0 0 0 0 0
-4 0 0 -5 -1 0 0 0 0 0 -2 -2 -1 -1 -1 0 -1 0 0 0 -1 -1 -2 0 0 0 0 0 0 0 0 0 0 0 0 0 0 0 0 0 0 0 0 0 0
-4 0 -1 0 0 0 0 0 0 0 0 0 -1 -2 -1 0 0 0 0 -1 -2 -8 0 0 0 0 0 0 0 0 0 0 0 0 0 0 0 0 0 0 0 0 0 0 0
0 -1 -1 0 0 -1 -1 0 0 0 0 0 0 0 0 0 0 0 -2 -8 -2 0 0 0 0 0 0 0 0 0 0 0 0 0 0 0 0 0 0 0 0 0 0 0 0
-1 0 -2 -1 0 0 0 0 0 0 0 0 -1 0 0 0 -3 0 0 0 0 0 0 -9 -19 -1 0 -1 -1 -1 0 0 0 0 0 0 0 0 0 0 0 0 0 0 0
Wind_Speed
19 18 18 17 18 18 17 18 19 19 20 20 20 21 20 21 19 18 19 16 15 14 14 12 12 12 11 13 13 14 13 8 1 13 6 10 8 10 13 14 8 10 10 14 13
18 19 18 18 18 18 18 19 19 20 21 21 22 22 22 22 20 23 17 15 15 14 13 12 12 11 12 12 12 13 12 13 19 17 19 10 6 7 7 11 15 13 8 9 11
20 19 19 19 19 19 19 20 20 21 21 22 23 23 23 21 20 20 16 17 17 16 17 16 15 13 15 14 13 16 18 21 19 19 18 16 8 11 5 16 14 14 12 9 10
20 20 20 20 20 21 20 20 21 21 22 23 23 24 23 19 22 18 16 17 18 17 14 13 13 15 17 16 15 20 22 22 21 19 19 18 19 14 9 17 19 24 21 8 10
21 21 21 21 22 22 22 21 22 22 23 24 24 24 21 22 23 16 16 16 17 16 16 14 15 17 19 18 16 20 21 19 20 20 21 22 22 26 19 19 5 16 9 5 8
23 23 22 23 23 23 23 23 23 23 23 24 24 25 23 27 17 16 15 16 17 17 17 17 19 17 19 19 18 18 22 22 21 21 21 22 27 23 21 16 15 5 6 3 7
22 23 24 24 25 25 25 24 24 24 24 24 24 22 26 27 18 17 16 16 16 17 17 18 16 16 15 18 18 19 24 23 24 22 22 22 28 17 29 19 22 2 10 6 7
18 23 24 23 24 25 25 25 25 24 25 24 23 22 29 19 18 17 16 16 15 15 14 15 15 14 17 14 17 22 24 26 18 19 21 19 31 23 20 19 27 30 6 4 5
22 19 24 23 24 25 25 25 25 25 24 23 23 24 29 17 21 17 17 18 15 14 14 13 15 17 16 20 22 21 28 23 26 21 22 18 30 21 21 22 29 28 21 10 6
23 24 20 24 24 24 25 25 23 23 22 21 23 26 25 25 19 18 17 14 19 14 15 17 18 20 21 21 26 28 27 27 27 20 23 27 37 36 34 34 36 35 28 8 8
21 26 25 22 22 24 23 21 24 27 26 28 25 29 21 20 18 20 18 17 18 20 24 21 24 27 23 24 30 27 27 28 26 22 28 35 42 41 37 40 39 40 15 11 11
22 24 25 24 21 23 23 25 25 23 31 31 30 28 24 21 25 21 18 22 23 27 23 25 33 27 25 26 24 28 33 35 35 29 29 38 46 43 40 42 38 38 15 14 12
22 22 22 21 23 23 26 27 21 23 31 30 29 33 28 22 29 25 19 24 27 28 26 32 28 26 25 27 29 32 34 33 35 31 33 40 46 45 35 23 29 16 16 13 15
20 23 22 21 22 23 26 25 21 20 36 38 34 32 28 26 34 22 21 24 27 31 29 34 32 27 26 31 27 37 31 32 35 35 39 27 45 42 44 45 26 24 23 22 23
20 20 23 24 24 23 24 24 18 20 42 28 28 23 24 29 26 28 21 26 31 28 26 30 28 29 32 30 25 32 26 27 29 34 41 37 41 40 35 35 29 28 24 23 22
21 22 22 21 22 21 22 17 18 32 41 28 24 29 29 30 30 24 25 25 27 31 33 33 26 26 28 26 26 21 25 26 28 33 45 41 38 46 35 36 31 26 22 26 22
25 24 22 22 23 23 20 18 32 37 27 32 30 26 29 32 32 31 30 33 35 37 42 36 37 30 26 27 23 24 27 36 39 37 46 35 40 38 29 31 35 33 35 25 25
28 27 25 26 24 23 23 26 38 29 32 24 26 24 29 26 32 31 31 38 37 37 41 40 44 33 31 35 32 30 30 37 44 43 47 34 42 38 29 27 27 26 32 33 28
25 27 28 28 26 23 25 37 33 28 24 26 22 29 32 29 29 30 36 40 36 36 41 39 42 29 28 29 29 31 38 34 44 44 46 46 51 53 41 41 35 33 28 28 27
23 26 30 22 20 25 32 34 28 25 25 24 30 30 33 31 31 31 29 31 36 33 34 37 49 32 30 29 33 34 28 36 35 45 48 50 50 48 44 41 39 34 32 32 30
24 29 21 19 17 30 40 39 34 32 25 26 27 27 28 26 29 30 31 28 27 28 29 32 36 35 29 36 35 33 37 34 33 38 45 51 48 35 31 29 31 30 30 30 29
21 33 21 18 33 37 44 38 35 34 33 32 32 31 26 27 28 30 33 31 24 26 31 31 34 46 44 32 32 37 38 37 41 41 39 46 59 33 30 28 30 32 31 31 30
24 27 20 22 40 46 41 40 40 39 35 35 35 33 28 31 32 28 30 24 24 23 25 25 34 43 41 38 36 40 40 40 42 39 46 48 53 31 29 28 28 29 28 28 28
25 29 25 26 31 37 43 45 44 37 40 40 36 35 34 35 30 32 31 26 24 25 22 21 28 35 41 31 33 37 42 41 42 46 50 50 55 50 42 43 40 38 35 33 29
29 31 26 33 38 35 32 35 42 42 36 38 42 42 38 38 35 35 32 31 27 23 22 24 35 33 38 39 36 36 39 38 41 45 46 52 49 70 45 44 44 41 38 37 33
32 32 30 32 31 33 36 37 38 34 33 39 44 38 44 48 45 41 36 34 35 28 32 27 40 36 42 39 40 46 46 45 45 49 45 51 53 49 46 44 43 41 41 42 43
32 31 32 35 35 35 39 39 34 29 30 31 30 37 41 38 32 34 35 37 37 35 33 32 33 36 55 39 42 48 48 44 45 43 42 49 54 46 49 47 43 45 45 46 44
Wind_Direction
259 260 262 264 264 268 271 271 272 272 271 271 272 271 276 276 278 272 267 279 279 282 281 287 290 294 294 293 291 292 299 311 52 322 167 8 89 17 329 152 51 95 221 360 83
262 262 263 266 267 268 270 273 274 274 274 273 273 275 278 277 275 264 280 281 278 282 281 281 287 292 293 294 293 285 288 297 300 302 302 342 95 28 80 149 172 164 114 57 98
264 264 264 267 268 270 272 273 275 276 276 276 278 278 279 278 274 273 281 278 277 278 278 280 285 288 286 291 288 285 282 289 295 296 301 306 335 325 107 186 171 173 160 124 126
267 267 266 267 270 271 273 275 276 277 278 279 280 281 280 278 267 282 282 279 275 276 281 282 282 281 281 282 285 279 278 284 291 294 294 297 297 315 173 189 303 263 287 133 145
267 268 268 268 270 271 273 275 277 279 279 280 283 284 279 270 269 295 284 281 278 276 274 277 276 277 277 283 287 279 283 287 289 291 287 288 290 281 274 202 248 315 341 143 160
268 269 269 269 270 272 273 274 277 279 281 283 284 284 272 263 286 284 289 281 277 275 274 274 278 280 281 282 281 288 281 282 285 287 288 289 282 293 304 267 193 182 184 179 180
272 269 270 269 270 270 272 274 276 278 280 283 285 284 268 266 286 282 279 282 279 277 275 276 283 279 287 285 285 285 281 283 279 285 288 293 283 295 282 302 296 282 193 199 203
284 271 269 271 271 271 273 274 276 278 279 282 284 281 265 284 283 280 276 278 284 285 284 282 284 284 283 292 288 280 280 277 290 286 288 293 275 296 302 294 285 234 209 243 239
275 281 270 270 272 272 272 275 276 277 279 282 278 274 265 286 271 275 275 271 276 285 286 285 282 280 280 276 277 278 274 279 280 289 287 288 281 298 298 297 285 287 306 313 260
273 272 279 269 271 273 274 274 277 277 277 280 275 270 268 266 273 272 276 272 271 272 277 276 277 273 270 268 269 272 275 276 279 293 288 284 272 274 280 277 271 280 298 288 287
277 269 269 273 274 271 275 275 270 266 265 260 267 262 277 274 278 268 270 267 270 265 262 268 266 263 269 269 270 276 278 280 283 293 289 280 267 270 280 261 249 265 299 252 263
279 275 267 268 273 270 271 267 271 275 267 262 263 266 270 274 265 266 263 258 260 259 262 267 262 268 276 274 272 274 274 275 277 287 289 281 264 268 278 252 244 267 247 259 278
283 281 282 273 269 270 263 264 279 278 267 266 262 259 262 264 263 261 254 260 260 258 258 261 273 268 269 271 271 272 274 278 278 288 289 285 276 271 285 295 294 288 248 265 298
291 281 283 274 275 267 266 268 274 279 265 261 259 261 257 258 261 265 255 262 263 259 261 266 267 269 269 269 273 272 279 280 280 282 282 293 281 276 272 274 295 300 300 302 306
292 290 280 269 275 270 275 266 270 271 258 264 255 265 256 249 259 257 256 260 259 259 262 268 268 265 266 270 272 275 284 282 283 281 282 282 285 286 288 288 295 298 302 307 312
286 283 283 267 271 280 275 269 260 251 253 262 261 253 249 251 256 261 254 262 267 262 264 267 275 271 271 276 271 277 282 285 285 284 276 280 281 283 289 289 294 299 304 311 314
276 283 278 274 268 271 273 264 250 250 253 259 258 257 250 250 252 252 249 250 251 257 259 264 265 270 271 272 276 270 275 276 276 273 273 286 281 281 293 295 294 294 300 307 312
273 273 271 267 265 268 260 256 249 256 251 267 260 256 253 251 254 251 252 253 252 258 265 259 263 260 261 262 269 265 266 268 272 274 276 283 277 285 295 301 305 303 300 302 306
284 270 267 260 255 259 259 250 254 256 261 259 259 255 254 255 259 254 253 255 258 251 257 262 264 272 273 267 259 268 264 273 274 277 278 276 278 282 288 292 295 298 300 303 305
282 273 263 270 269 257 253 255 257 265 268 259 257 259 256 252 254 254 254 266 258 260 257 265 266 270 272 271 265 262 277 268 268 272 273 276 279 281 290 293 294 298 298 302 306
276 266 275 269 270 253 249 253 257 257 262 264 261 259 257 259 255 257 263 269 264 267 257 263 264 269 269 262 261 262 262 268 273 270 275 278 279 293 297 300 299 304 307 308 310
275 258 272 262 251 252 250 251 256 257 255 260 264 263 265 265 265 262 261 265 279 270 262 260 268 264 265 275 270 266 263 258 265 270 273 276 276 286 295 303 305 306 310 312 312
269 267 276 259 251 249 254 255 253 253 253 255 258 259 264 264 265 270 270 273 274 275 273 271 265 266 270 271 272 268 264 265 264 273 269 270 276 285 291 301 306 310 312 314 314
267 264 265 259 263 258 254 253 253 257 253 253 261 260 261 263 265 266 269 276 273 274 276 282 271 265 265 275 285 271 268 265 264 264 265 268 274 277 282 290 296 298 301 305 310
261 262 264 258 255 258 262 262 255 255 259 257 256 256 258 262 262 261 266 272 276 272 272 276 271 274 274 276 279 283 280 278 264 264 267 273 276 265 285 289 292 295 294 295 296
261 259 262 266 263 256 256 261 260 261 262 259 257 261 258 259 260 264 266 268 270 271 272 271 274 275 271 277 279 277 278 278 277 273 272 274 276 281 287 291 292 292 294 293 293
258 264 263 262 260 258 256 259 264 264 266 268 271 264 264 265 269 269 270 269 271 273 272 273 273 276 271 279 281 275 275 277 278 276 275 274 278 286 285 288 292 292 293 292 293